| time (UTC) | temp F | wind direction | speed knots | gust knots | rain 1hr in | rain 24hr in | rain mn in | humidity % | barometer mb |
| 20260831132505 | 74 | 169 | 2.6 | 4.3 | 0.00 | 0.00 | 0.00 | 91 | 1006.1 |
| 20260831132006 | 74 | 158 | 1.7 | 4.3 | 0.00 | 0.00 | 0.00 | 92 | 1006.0 |
| 20260831131505 | 73 | 158 | 1.7 | 4.3 | 0.00 | 0.00 | 0.00 | 92 | 1006.0 |
| 20260831131005 | 73 | 158 | 1.7 | 2.6 | 0.00 | 0.00 | 0.00 | 92 | 1005.9 |
| 20260831130505 | 73 | 158 | 0.9 | 2.6 | 0.00 | 0.00 | 0.00 | 92 | 1005.8 |
| 20260831125514 | 72 | 158 | 0.9 | 2.6 | 0.00 | 0.00 | 0.00 | 92 | 1005.9 |
| 20260831125006 | 71 | 158 | 0.9 | 1.7 | 0.00 | 0.00 | 0.00 | 92 | 1005.9 |
| 20260831124505 | 71 | 158 | 0.9 | 1.7 | 0.00 | 0.00 | 0.00 | 92 | 1005.9 |
| 20260831124006 | 71 | 158 | 0.9 | 2.6 | 0.00 | 0.00 | 0.00 | 92 | 1005.8 |
| 20260831123505 | 71 | 158 | 1.7 | 4.3 | 0.00 | 0.00 | 0.00 | 92 | 1005.9 |
| 20260831123005 | 70 | 158 | 1.7 | 2.6 | 0.00 | 0.00 | 0.00 | 92 | 1005.8 |
| 20260831122505 | 70 | 158 | 1.7 | 2.6 | 0.00 | 0.00 | 0.00 | 92 | 1005.6 |
| 20260831122005 | 70 | 158 | 1.7 | 4.3 | 0.00 | 0.00 | 0.00 | 92 | 1005.6 |
| 20260831121505 | 70 | 158 | 1.7 | 2.6 | 0.00 | 0.00 | 0.00 | 92 | 1005.4 |
| 20260831121006 | 70 | 158 | 1.7 | 2.6 | 0.00 | 0.00 | 0.00 | 92 | 1005.4 |
| 20260831120506 | 70 | 158 | 0.9 | 2.6 | 0.00 | 0.00 | 0.00 | 92 | 1005.3 |
| 20260831120005 | 70 | 158 | 0.9 | 1.7 | 0.00 | 0.00 | 0.00 | 92 | 1005.3 |
| 20260831115505 | 70 | 158 | 0.0 | 1.7 | 0.00 | 0.00 | 0.00 | 92 | 1005.3 |
| 20260831115005 | 70 | 158 | 0.9 | 1.7 | 0.00 | 0.00 | 0.00 | 92 | 1005.3 |
| 20260831114505 | 70 | 158 | 1.7 | 2.6 | 0.00 | 0.00 | 0.00 | 92 | 1005.3 |
| 20260831114005 | 70 | 158 | 0.9 | 1.7 | 0.00 | 0.00 | 0.00 | 92 | 1005.3 |
| 20260831113505 | 70 | 158 | 0.9 | 2.6 | 0.00 | 0.00 | 0.00 | 92 | 1005.1 |
| 20260831113005 | 70 | 158 | 0.9 | 1.7 | 0.00 | 0.00 | 0.00 | 92 | 1005.1 |
| 20260831112005 | 70 | 158 | 0.0 | 0.0 | 0.00 | 0.00 | 0.00 | 92 | 1005.2 |
| 20260831111506 | 71 | 158 | 0.0 | 0.0 | 0.00 | 0.00 | 0.00 | 92 | 1005.0 |
| 20260831110505 | 71 | 158 | 0.0 | 2.6 | 0.00 | 0.00 | 0.00 | 92 | 1005.1 |
| 20260831110005 | 71 | 158 | 1.7 | 4.3 | 0.00 | 0.00 | 0.00 | 92 | 1005.2 |
| 20260831105505 | 71 | 158 | 1.7 | 4.3 | 0.00 | 0.00 | 0.00 | 92 | 1005.2 |
| 20260831105005 | 71 | 158 | 0.9 | 1.7 | 0.00 | 0.00 | 0.00 | 92 | 1005.1 |
| 20260831104505 | 71 | 158 | 1.7 | 2.6 | 0.00 | 0.00 | 0.00 | 92 | 1005.0 |
| 20260831104006 | 71 | 150 | 0.9 | 2.6 | 0.00 | 0.00 | 0.00 | 92 | 1005.0 |
| 20260831103505 | 71 | 149 | 1.7 | 2.6 | 0.00 | 0.00 | 0.00 | 92 | 1005.1 |
| 20260831103005 | 71 | 149 | 0.9 | 2.6 | 0.00 | 0.00 | 0.00 | 92 | 1005.2 |
| 20260831102505 | 71 | 149 | 0.0 | 1.7 | 0.00 | 0.00 | 0.00 | 92 | 1005.3 |
| 20260831102006 | 71 | 149 | 0.9 | 2.6 | 0.00 | 0.00 | 0.00 | 91 | 1005.2 |
| 20260831100505 | 71 | 149 | 0.9 | 2.6 | 0.00 | 0.00 | 0.00 | 91 | 1005.2 |
| 20260831095505 | 71 | 149 | 0.9 | 2.6 | 0.00 | 0.00 | 0.00 | 91 | 1005.2 |
| 20260831095005 | 71 | 149 | 0.9 | 2.6 | 0.00 | 0.00 | 0.00 | 91 | 1005.2 |
| 20260831094005 | 71 | 149 | 0.9 | 1.7 | 0.00 | 0.00 | 0.00 | 91 | 1005.4 |
| 20260831093005 | 72 | 149 | 0.0 | 0.9 | 0.00 | 0.00 | 0.00 | 91 | 1005.2 |
| 20260831092505 | 72 | 149 | 0.9 | 1.7 | 0.00 | 0.00 | 0.00 | 91 | 1005.2 |
| 20260831092007 | 72 | 149 | 0.9 | 2.6 | 0.00 | 0.00 | 0.00 | 91 | 1005.2 |
| 20260831091506 | 72 | 149 | 0.9 | 2.6 | 0.00 | 0.00 | 0.00 | 91 | 1005.1 |
| 20260831091006 | 72 | 149 | 0.0 | 0.9 | 0.00 | 0.00 | 0.00 | 91 | 1005.2 |
| 20260831090506 | 72 | 149 | 0.0 | 0.0 | 0.00 | 0.00 | 0.00 | 91 | 1005.3 |
| 20260831090006 | 72 | 149 | 0.0 | 1.7 | 0.00 | 0.00 | 0.00 | 91 | 1005.2 |
| 20260831085506 | 72 | 149 | 0.0 | 1.7 | 0.00 | 0.00 | 0.00 | 91 | 1005.3 |
| 20260831085006 | 72 | 149 | 0.9 | 1.7 | 0.00 | 0.00 | 0.00 | 91 | 1005.3 |
| 20260831084506 | 72 | 149 | 0.0 | 1.7 | 0.00 | 0.00 | 0.00 | 91 | 1005.3 |
| 20260831084006 | 72 | 149 | 0.9 | 2.6 | 0.00 | 0.00 | 0.00 | 91 | 1005.2 |
| 20260831083506 | 73 | 149 | 0.9 | 1.7 | 0.00 | 0.00 | 0.00 | 90 | 1005.0 |
| 20260831083008 | 73 | 149 | 0.9 | 2.6 | 0.00 | 0.00 | 0.00 | 90 | 1005.0 |
| 20260831082506 | 73 | 154 | 0.9 | 2.6 | 0.00 | 0.00 | 0.00 | 91 | 1005.0 |
| 20260831081506 | 73 | 96 | 1.7 | 4.3 | 0.00 | 0.00 | 0.00 | 91 | 1005.0 |
| 20260831081006 | 73 | 162 | 1.7 | 6.1 | 0.00 | 0.00 | 0.00 | 90 | 1005.0 |
| 20260831080506 | 73 | 156 | 1.7 | 5.2 | 0.00 | 0.00 | 0.00 | 90 | 1005.0 |
| 20260831080006 | 73 | 159 | 2.6 | 4.3 | 0.00 | 0.00 | 0.00 | 90 | 1005.0 |
| 20260831075506 | 73 | 161 | 1.7 | 5.2 | 0.00 | 0.00 | 0.00 | 90 | 1005.0 |
| 20260831075006 | 73 | 140 | 0.9 | 4.3 | 0.00 | 0.00 | 0.00 | 90 | 1005.1 |
| 20260831074506 | 73 | 163 | 1.7 | 4.3 | 0.00 | 0.00 | 0.00 | 90 | 1005.2 |
| 20260831074007 | 73 | 163 | 2.6 | 4.3 | 0.00 | 0.00 | 0.00 | 90 | 1005.2 |
| 20260831073507 | 73 | 163 | 1.7 | 4.3 | 0.00 | 0.00 | 0.00 | 90 | 1005.2 |
| 20260831073006 | 73 | 159 | 1.7 | 4.3 | 0.00 | 0.00 | 0.00 | 90 | 1005.3 |
| 20260831072506 | 73 | 157 | 1.7 | 6.1 | 0.00 | 0.00 | 0.00 | 91 | 1005.3 |
| 20260831072006 | 73 | 161 | 2.6 | 4.3 | 0.00 | 0.00 | 0.00 | 91 | 1005.3 |
| 20260831071506 | 73 | 161 | 1.7 | 4.3 | 0.00 | 0.00 | 0.00 | 91 | 1005.2 |
| 20260831071006 | 73 | 160 | 1.7 | 4.3 | 0.00 | 0.00 | 0.00 | 90 | 1005.3 |
| 20260831070006 | 72 | 167 | 2.6 | 2.6 | 0.00 | 0.00 | 0.00 | 90 | 1005.4 |
| 20260831065506 | 72 | 167 | 1.7 | 2.6 | 0.00 | 0.00 | 0.00 | 90 | 1005.4 |
| 20260831065006 | 72 | 167 | 1.7 | 2.6 | 0.00 | 0.00 | 0.00 | 90 | 1005.4 |
| 20260831064506 | 72 | 167 | 1.7 | 2.6 | 0.00 | 0.00 | 0.00 | 90 | 1005.5 |
| 20260831064006 | 72 | 167 | 1.7 | 4.3 | 0.00 | 0.00 | 0.00 | 90 | 1005.5 |
| 20260831063006 | 72 | 161 | 0.9 | 2.6 | 0.00 | 0.00 | 0.00 | 90 | 1005.6 |
| 20260831062506 | 72 | 161 | 1.7 | 2.6 | 0.00 | 0.00 | 0.00 | 90 | 1005.8 |
| 20260831060506 | 72 | 165 | 0.9 | 2.6 | 0.00 | 0.00 | 0.00 | 89 | 1006.0 |
| 20260831060007 | 72 | 165 | 0.9 | 2.6 | 0.00 | 0.00 | 0.00 | 89 | 1005.9 |
| 20260831055506 | 72 | 165 | 0.9 | 2.6 | 0.00 | 0.00 | 0.00 | 89 | 1005.9 |
| 20260831055006 | 72 | 165 | 1.7 | 2.6 | 0.00 | 0.00 | 0.00 | 89 | 1005.9 |
| 20260831054507 | 72 | 165 | 0.9 | 2.6 | 0.00 | 0.00 | 0.00 | 89 | 1006.0 |
| 20260831054006 | 72 | 165 | 0.9 | 2.6 | 0.00 | 0.00 | 0.00 | 89 | 1006.0 |
| 20260831053506 | 72 | 165 | 0.9 | 1.7 | 0.00 | 0.00 | 0.00 | 88 | 1006.1 |
| 20260831053006 | 73 | 165 | 0.9 | 2.6 | 0.00 | 0.00 | 0.00 | 88 | 1006.1 |
| 20260831052506 | 73 | 165 | 1.7 | 2.6 | 0.00 | 0.00 | 0.00 | 88 | 1006.2 |
| 20260831052006 | 73 | 165 | 1.7 | 2.6 | 0.00 | 0.00 | 0.00 | 88 | 1006.1 |
| 20260831051006 | 73 | 159 | 1.7 | 4.3 | 0.00 | 0.00 | 0.00 | 88 | 1006.3 |
| 20260831050506 | 73 | 159 | 1.7 | 5.2 | 0.00 | 0.00 | 0.00 | 88 | 1006.2 |
| 20260831050006 | 73 | 159 | 1.7 | 4.3 | 0.00 | 0.00 | 0.00 | 87 | 1006.3 |
| 20260831045506 | 73 | 154 | 1.7 | 6.1 | 0.00 | 0.00 | 0.00 | 87 | 1006.3 |
| 20260831045006 | 73 | 160 | 1.7 | 4.3 | 0.00 | 0.00 | 0.00 | 87 | 1006.3 |
| 20260831044506 | 73 | 160 | 1.7 | 4.3 | 0.00 | 0.00 | 0.00 | 87 | 1006.3 |
| 20260831044006 | 73 | 160 | 1.7 | 4.3 | 0.00 | 0.00 | 0.00 | 87 | 1006.2 |
| 20260831043506 | 73 | 158 | 1.7 | 4.3 | 0.00 | 0.00 | 0.00 | 87 | 1006.3 |
| 20260831043006 | 73 | 162 | 1.7 | 4.3 | 0.00 | 0.00 | 0.00 | 86 | 1006.3 |
| 20260831042506 | 73 | 161 | 1.7 | 2.6 | 0.00 | 0.00 | 0.00 | 86 | 1006.3 |
| 20260831042006 | 73 | 158 | 1.7 | 4.3 | 0.00 | 0.00 | 0.00 | 86 | 1006.3 |
| 20260831041506 | 73 | 159 | 1.7 | 5.2 | 0.00 | 0.00 | 0.00 | 86 | 1006.2 |
| 20260831041006 | 73 | 153 | 0.9 | 5.2 | 0.00 | 0.00 | 0.00 | 86 | 1006.3 |
| 20260831040506 | 73 | 158 | 1.7 | 4.3 | 0.00 | 0.00 | 0.00 | 85 | 1006.3 |
| 20260831040006 | 73 | 158 | 1.7 | 4.3 | 0.00 | 0.00 | 0.00 | 85 | 1006.2 |
| 20260831035506 | 74 | 157 | 1.7 | 5.2 | 0.00 | 0.00 | 0.00 | 85 | 1006.3 |
| 20260831035007 | 74 | 165 | 1.7 | 5.2 | 0.00 | 0.00 | 0.00 | 85 | 1006.3 |
| 20260831034507 | 74 | 162 | 1.7 | 5.2 | 0.00 | 0.00 | 0.00 | 85 | 1006.3 |
| 20260831034007 | 74 | 151 | 2.6 | 5.2 | 0.00 | 0.00 | 0.00 | 85 | 1006.3 |
| 20260831033006 | 74 | 161 | 1.7 | 5.2 | 0.00 | 0.00 | 0.00 | 85 | 1006.5 |
| 20260831032506 | 74 | 161 | 1.7 | 5.2 | 0.00 | 0.00 | 0.00 | 84 | 1006.6 |
| 20260831032006 | 74 | 160 | 2.6 | 4.3 | 0.00 | 0.00 | 0.00 | 84 | 1006.6 |
| 20260831031506 | 74 | 150 | 1.7 | 4.3 | 0.00 | 0.00 | 0.00 | 84 | 1006.7 |
| 20260831031006 | 74 | 143 | 1.7 | 5.2 | 0.00 | 0.00 | 0.00 | 84 | 1006.7 |
| 20260831030506 | 74 | 154 | 2.6 | 5.2 | 0.00 | 0.00 | 0.00 | 84 | 1006.7 |
| 20260831030006 | 74 | 162 | 1.7 | 2.6 | 0.00 | 0.00 | 0.00 | 84 | 1006.8 |
| 20260831025506 | 74 | 165 | 2.6 | 5.2 | 0.00 | 0.00 | 0.00 | 84 | 1006.8 |
| 20260831025006 | 74 | 167 | 3.5 | 6.1 | 0.00 | 0.00 | 0.00 | 84 | 1006.8 |
| 20260831024506 | 74 | 179 | 2.6 | 5.2 | 0.00 | 0.00 | 0.00 | 84 | 1006.9 |
| 20260831024007 | 74 | 161 | 2.6 | 5.2 | 0.00 | 0.00 | 0.00 | 83 | 1006.9 |
| 20260831023506 | 74 | 177 | 1.7 | 4.3 | 0.00 | 0.00 | 0.00 | 83 | 1006.9 |
| 20260831023006 | 74 | 152 | 1.7 | 4.3 | 0.00 | 0.00 | 0.00 | 83 | 1007.0 |
| 20260831022507 | 74 | 163 | 2.6 | 5.2 | 0.00 | 0.00 | 0.00 | 83 | 1007.0 |
| 20260831022007 | 74 | 158 | 1.7 | 4.3 | 0.00 | 0.00 | 0.00 | 83 | 1007.0 |
| 20260831021506 | 74 | 169 | 2.6 | 7.0 | 0.00 | 0.00 | 0.00 | 82 | 1006.9 |
| 20260831021006 | 74 | 171 | 3.5 | 7.0 | 0.00 | 0.00 | 0.00 | 82 | 1007.0 |
| 20260831020506 | 74 | 161 | 2.6 | 6.1 | 0.00 | 0.00 | 0.00 | 82 | 1006.9 |
| 20260831020006 | 74 | 170 | 1.7 | 5.2 | 0.00 | 0.00 | 0.00 | 81 | 1006.9 |
| 20260831015506 | 75 | 154 | 1.7 | 5.2 | 0.00 | 0.00 | 0.00 | 81 | 1006.9 |
| 20260831015006 | 75 | 160 | 2.6 | 7.0 | 0.00 | 0.00 | 0.00 | 81 | 1006.9 |
| 20260831014506 | 75 | 170 | 2.6 | 7.0 | 0.00 | 0.00 | 0.00 | 81 | 1006.9 |
| 20260831014006 | 75 | 174 | 3.5 | 6.1 | 0.00 | 0.00 | 0.00 | 80 | 1006.8 |
| 20260831013007 | 75 | 170 | 4.3 | 10.4 | 0.00 | 0.00 | 0.00 | 80 | 1006.7 |
| 20260831012506 | 75 | 161 | 3.5 | 10.4 | 0.00 | 0.00 | 0.00 | 79 | 1006.6 |
| 20260831012007 | 75 | 171 | 2.6 | 6.1 | 0.00 | 0.00 | 0.00 | 79 | 1006.5 |
| 20260831011506 | 76 | 168 | 3.5 | 8.7 | 0.00 | 0.00 | 0.00 | 79 | 1006.5 |
| 20260831011007 | 76 | 172 | 2.6 | 10.4 | 0.00 | 0.00 | 0.00 | 79 | 1006.5 |
| 20260831010507 | 76 | 163 | 2.6 | 8.7 | 0.00 | 0.00 | 0.00 | 79 | 1006.4 |
| 20260831010006 | 76 | 171 | 4.3 | 6.1 | 0.00 | 0.00 | 0.00 | 78 | 1006.4 |
| 20260831005506 | 76 | 161 | 3.5 | 7.8 | 0.00 | 0.00 | 0.00 | 78 | 1006.3 |
| 20260831005006 | 76 | 164 | 2.6 | 7.0 | 0.00 | 0.00 | 0.00 | 77 | 1006.2 |
| 20260831004506 | 76 | 166 | 3.5 | 7.0 | 0.00 | 0.00 | 0.00 | 77 | 1006.2 |
| 20260831004006 | 77 | 169 | 3.5 | 10.4 | 0.00 | 0.00 | 0.00 | 76 | 1006.2 |
| 20260831003506 | 77 | 173 | 4.3 | 8.7 | 0.00 | 0.00 | 0.00 | 76 | 1006.3 |
| 20260831003006 | 77 | 158 | 3.5 | 8.7 | 0.00 | 0.00 | 0.00 | 76 | 1006.3 |
| 20260831002506 | 77 | 166 | 2.6 | 6.1 | 0.00 | 0.00 | 0.00 | 76 | 1006.5 |
| 20260831002006 | 77 | 166 | 3.5 | 6.1 | 0.00 | 0.00 | 0.00 | 76 | 1006.6 |
| 20260831001006 | 78 | 156 | 3.5 | 7.8 | 0.00 | 0.00 | 0.00 | 75 | 1006.5 |
| 20260831000506 | 78 | 180 | 2.6 | 5.2 | 0.00 | 0.00 | 0.00 | 75 | 1006.6 |
| 20260830235006 | 78 | 173 | 3.5 | 7.0 | 0.00 | 0.00 | 0.00 | 74 | 1006.4 |
| 20260830234006 | 78 | 172 | 4.3 | 8.7 | 0.00 | 0.00 | 0.00 | 73 | 1006.5 |
| 20260830233506 | 79 | 153 | 4.3 | 7.8 | 0.00 | 0.00 | 0.00 | 73 | 1006.5 |
| 20260830233006 | 79 | 173 | 4.3 | 7.0 | 0.00 | 0.00 | 0.00 | 72 | 1006.5 |
| 20260830232506 | 79 | 171 | 4.3 | 8.7 | 0.00 | 0.00 | 0.00 | 71 | 1006.5 |
| 20260830230506 | 80 | 166 | 4.3 | 7.0 | 0.00 | 0.00 | 0.00 | 69 | 1006.4 |
| 20260830225506 | 80 | 173 | 3.5 | 10.4 | 0.00 | 0.00 | 0.00 | 68 | 1006.2 |
| 20260830225006 | 81 | 168 | 3.5 | 7.8 | 0.00 | 0.00 | 0.00 | 68 | 1006.0 |
| 20260830224006 | 81 | 159 | 1.7 | 7.0 | 0.00 | 0.00 | 0.00 | 70 | 1006.0 |
| 20260830223506 | 81 | 172 | 2.6 | 6.1 | 0.00 | 0.00 | 0.00 | 70 | 1006.0 |
| 20260830223007 | 81 | 172 | 2.6 | 6.1 | 0.00 | 0.00 | 0.00 | 69 | 1006.0 |
| 20260830222506 | 81 | 177 | 5.2 | 7.0 | 0.00 | 0.00 | 0.00 | 69 | 1005.9 |
| 20260830222006 | 82 | 166 | 1.7 | 4.3 | 0.00 | 0.00 | 0.00 | 72 | 1005.9 |
| 20260830221506 | 82 | 175 | 2.6 | 7.8 | 0.00 | 0.00 | 0.00 | 70 | 1006.0 |
| 20260830221006 | 82 | 166 | 2.6 | 7.0 | 0.00 | 0.00 | 0.00 | 71 | 1005.8 |
| 20260830220506 | 82 | 166 | 3.5 | 6.1 | 0.00 | 0.00 | 0.00 | 70 | 1005.8 |
| 20260830220006 | 82 | 157 | 2.6 | 6.1 | 0.00 | 0.00 | 0.00 | 70 | 1005.8 |
| 20260830215506 | 82 | 184 | 2.6 | 5.2 | 0.00 | 0.00 | 0.00 | 70 | 1005.8 |
| 20260830215007 | 82 | 172 | 2.6 | 5.2 | 0.00 | 0.00 | 0.00 | 69 | 1005.9 |
| 20260830214006 | 82 | 171 | 4.3 | 7.8 | 0.00 | 0.00 | 0.00 | 67 | 1005.8 |
| 20260830213006 | 82 | 172 | 4.3 | 6.1 | 0.00 | 0.00 | 0.00 | 69 | 1005.7 |
| 20260830212506 | 82 | 175 | 3.5 | 5.2 | 0.00 | 0.00 | 0.00 | 67 | 1005.7 |
| 20260830212006 | 82 | 171 | 3.5 | 7.0 | 0.00 | 0.00 | 0.00 | 67 | 1005.7 |
| 20260830211006 | 83 | 177 | 2.6 | 7.8 | 0.00 | 0.00 | 0.00 | 68 | 1005.6 |
| 20260830210506 | 83 | 169 | 4.3 | 10.4 | 0.00 | 0.00 | 0.00 | 66 | 1005.5 |
| 20260830210006 | 84 | 148 | 4.3 | 7.8 | 0.00 | 0.00 | 0.00 | 65 | 1005.6 |
| 20260830205506 | 84 | 159 | 1.7 | 6.1 | 0.00 | 0.00 | 0.00 | 68 | 1005.7 |
| 20260830204506 | 84 | 156 | 2.6 | 7.0 | 0.00 | 0.00 | 0.00 | 67 | 1005.8 |
| 20260830203006 | 84 | 163 | 1.7 | 4.3 | 0.00 | 0.00 | 0.00 | 68 | 1005.3 |
| 20260830202505 | 84 | 173 | 4.3 | 6.1 | 0.00 | 0.00 | 0.00 | 67 | 1005.5 |
| 20260830202006 | 84 | 169 | 1.7 | 6.1 | 0.00 | 0.00 | 0.00 | 69 | 1005.6 |
| 20260830201006 | 84 | 172 | 2.6 | 6.1 | 0.00 | 0.00 | 0.00 | 70 | 1006.0 |
| 20260830200506 | 84 | 167 | 2.6 | 6.1 | 0.00 | 0.00 | 0.00 | 69 | 1006.1 |
| 20260830200006 | 84 | 192 | 2.6 | 7.8 | 0.00 | 0.00 | 0.00 | 70 | 1006.2 |
| 20260830195506 | 84 | 167 | 2.6 | 7.0 | 0.00 | 0.00 | 0.00 | 68 | 1006.2 |
| 20260830195009 | 84 | 167 | 2.6 | 7.0 | 0.00 | 0.00 | 0.00 | 69 | 1006.1 |
| 20260830193007 | 84 | 164 | 1.7 | 5.2 | 0.00 | 0.00 | 0.00 | 70 | 1006.0 |
| 20260830192506 | 84 | 145 | 1.7 | 5.2 | 0.00 | 0.00 | 0.00 | 71 | 1006.0 |
| 20260830192006 | 84 | 169 | 1.7 | 5.2 | 0.00 | 0.00 | 0.00 | 70 | 1006.1 |
| 20260830191506 | 84 | 155 | 1.7 | 4.3 | 0.00 | 0.00 | 0.00 | 69 | 1006.1 |
| 20260830191005 | 85 | 155 | 0.9 | 2.6 | 0.00 | 0.00 | 0.00 | 67 | 1006.0 |
| 20260830190506 | 85 | 155 | 2.6 | 6.1 | 0.00 | 0.00 | 0.00 | 65 | 1006.0 |
| 20260830185506 | 87 | 172 | 2.6 | 6.1 | 0.00 | 0.00 | 0.00 | 61 | 1006.0 |
| 20260830185006 | 88 | 172 | 2.6 | 5.2 | 0.00 | 0.00 | 0.00 | 60 | 1005.8 |
| 20260830184506 | 89 | 160 | 1.7 | 4.3 | 0.00 | 0.00 | 0.00 | 61 | 1005.7 |
| 20260830184006 | 89 | 171 | 0.9 | 4.3 | 0.00 | 0.00 | 0.00 | 62 | 1005.7 |
| 20260830183506 | 89 | 158 | 1.7 | 4.3 | 0.00 | 0.00 | 0.00 | 60 | 1005.7 |
| 20260830183007 | 89 | 171 | 0.9 | 4.3 | 0.00 | 0.00 | 0.00 | 62 | 1005.7 |
| 20260830182506 | 88 | 171 | 0.9 | 4.3 | 0.00 | 0.00 | 0.00 | 62 | 1005.7 |
| 20260830182006 | 88 | 173 | 0.9 | 2.6 | 0.00 | 0.00 | 0.00 | 63 | 1005.8 |
| 20260830181506 | 88 | 179 | 0.9 | 2.6 | 0.00 | 0.00 | 0.00 | 62 | 1005.8 |
| 20260830181006 | 87 | 186 | 1.7 | 2.6 | 0.00 | 0.00 | 0.00 | 64 | 1005.8 |
| 20260830180506 | 86 | 186 | 0.9 | 2.6 | 0.00 | 0.00 | 0.00 | 66 | 1005.8 |
| 20260830180006 | 86 | 169 | 0.9 | 2.6 | 0.00 | 0.00 | 0.00 | 65 | 1005.7 |
| 20260830175007 | 84 | 167 | 0.0 | 2.6 | 0.00 | 0.00 | 0.00 | 68 | 1006.0 |
| 20260830174506 | 83 | 167 | 0.0 | 2.6 | 0.00 | 0.00 | 0.00 | 72 | 1006.2 |
| 20260830173506 | 81 | 167 | 0.9 | 2.6 | 0.00 | 0.00 | 0.00 | 77 | 1006.4 |
| 20260830173007 | 80 | 167 | 0.0 | 0.9 | 0.00 | 0.00 | 0.00 | 77 | 1006.5 |
| 20260830172506 | 79 | 167 | 0.9 | 2.6 | 0.00 | 0.00 | 0.00 | 77 | 1006.6 |
| 20260830172006 | 79 | 167 | 1.7 | 2.6 | 0.00 | 0.00 | 0.00 | 77 | 1006.8 |
| 20260830171506 | 79 | 168 | 1.7 | 4.3 | 0.00 | 0.00 | 0.00 | 77 | 1006.9 |
| 20260830171006 | 79 | 164 | 0.9 | 4.3 | 0.00 | 0.00 | 0.00 | 77 | 1007.0 |
| 20260830170505 | 79 | 166 | 2.6 | 5.2 | 0.00 | 0.00 | 0.00 | 76 | 1007.2 |
| 20260830170006 | 79 | 166 | 2.6 | 8.7 | 0.00 | 0.00 | 0.00 | 75 | 1007.4 |
| 20260830165506 | 80 | 165 | 1.7 | 5.2 | 0.00 | 0.00 | 0.00 | 75 | 1007.3 |
| 20260830165006 | 80 | 175 | 2.6 | 5.2 | 0.00 | 0.00 | 0.00 | 74 | 1007.4 |
| 20260830164506 | 81 | 162 | 1.7 | 6.1 | 0.00 | 0.00 | 0.00 | 73 | 1007.3 |
| 20260830164006 | 81 | 169 | 3.5 | 6.1 | 0.00 | 0.00 | 0.00 | 72 | 1007.3 |
| 20260830163006 | 82 | 159 | 1.7 | 5.2 | 0.00 | 0.00 | 0.00 | 72 | 1007.3 |
| 20260830162505 | 83 | 151 | 0.9 | 2.6 | 0.00 | 0.00 | 0.00 | 71 | 1007.2 |
| 20260830162006 | 83 | 143 | 0.9 | 2.6 | 0.00 | 0.00 | 0.00 | 70 | 1006.9 |
| 20260830161506 | 84 | 144 | 1.7 | 2.6 | 0.00 | 0.00 | 0.00 | 70 | 1006.8 |
| 20260830161006 | 84 | 141 | 0.9 | 2.6 | 0.00 | 0.00 | 0.00 | 69 | 1006.6 |
| 20260830160506 | 83 | 141 | 1.7 | 2.6 | 0.00 | 0.00 | 0.00 | 70 | 1006.5 |
| 20260830160006 | 83 | 140 | 0.9 | 2.6 | 0.00 | 0.00 | 0.00 | 71 | 1006.5 |
| 20260830155506 | 83 | 138 | 0.9 | 2.6 | 0.00 | 0.00 | 0.00 | 72 | 1006.4 |
| 20260830155006 | 82 | 136 | 0.0 | 2.6 | 0.00 | 0.00 | 0.00 | 72 | 1006.2 |
| 20260830154506 | 82 | 136 | 0.9 | 2.6 | 0.00 | 0.00 | 0.00 | 73 | 1006.2 |
| 20260830154006 | 81 | 136 | 0.0 | 1.7 | 0.00 | 0.00 | 0.00 | 74 | 1006.1 |
| 20260830153506 | 81 | 136 | 0.9 | 2.6 | 0.00 | 0.00 | 0.00 | 74 | 1006.1 |
| 20260830153006 | 80 | 128 | 0.0 | 1.7 | 0.00 | 0.00 | 0.00 | 75 | 1006.1 |
| 20260830152506 | 80 | 128 | 0.0 | 1.7 | 0.00 | 0.00 | 0.00 | 78 | 1006.1 |
| 20260830152006 | 79 | 128 | 0.9 | 2.6 | 0.00 | 0.00 | 0.00 | 78 | 1006.2 |
| 20260830151006 | 78 | 126 | 0.9 | 2.6 | 0.00 | 0.00 | 0.00 | 79 | 1006.0 |
| 20260830150506 | 78 | 126 | 0.0 | 1.7 | 0.00 | 0.00 | 0.00 | 81 | 1005.9 |
| 20260830150006 | 77 | 126 | 0.9 | 2.6 | 0.00 | 0.00 | 0.00 | 80 | 1005.9 |
| 20260830145506 | 77 | 119 | 0.0 | 0.9 | 0.00 | 0.00 | 0.00 | 83 | 1006.0 |
| 20260830145006 | 76 | 119 | 0.9 | 1.7 | 0.00 | 0.00 | 0.00 | 83 | 1006.0 |
| 20260830144505 | 76 | 119 | 0.9 | 1.7 | 0.00 | 0.00 | 0.00 | 84 | 1006.0 |
| 20260830144006 | 75 | 119 | 0.0 | 1.7 | 0.00 | 0.00 | 0.00 | 84 | 1006.0 |
| 20260830143506 | 75 | 119 | 0.9 | 1.7 | 0.00 | 0.00 | 0.00 | 84 | 1006.1 |
| 20260830143006 | 75 | 119 | 0.0 | 0.0 | 0.00 | 0.00 | 0.00 | 84 | 1006.0 |
| 20260830142506 | 74 | 119 | 0.0 | 0.0 | 0.00 | 0.00 | 0.00 | 85 | 1005.9 |
| 20260830142006 | 74 | 119 | 0.0 | 0.9 | 0.00 | 0.00 | 0.00 | 85 | 1006.1 |
| 20260830141505 | 74 | 119 | 0.9 | 2.6 | 0.00 | 0.00 | 0.00 | 86 | 1006.0 |
| 20260830141006 | 73 | 116 | 0.9 | 2.6 | 0.00 | 0.00 | 0.00 | 87 | 1006.0 |
| 20260830140506 | 73 | 111 | 0.9 | 1.7 | 0.00 | 0.00 | 0.00 | 87 | 1006.0 |
| 20260830140005 | 73 | 111 | 0.9 | 1.7 | 0.00 | 0.00 | 0.00 | 88 | 1006.1 |
| 20260830135506 | 73 | 111 | 0.0 | 1.7 | 0.00 | 0.00 | 0.00 | 89 | 1006.2 |
| 20260830135006 | 72 | 111 | 0.0 | 1.7 | 0.00 | 0.00 | 0.00 | 89 | 1006.2 |
| 20260830134506 | 72 | 107 | 0.0 | 1.7 | 0.00 | 0.00 | 0.00 | 90 | 1006.1 |
| 20260830134006 | 71 | 107 | 0.0 | 1.7 | 0.00 | 0.00 | 0.00 | 90 | 1006.1 |
| 20260830133506 | 71 | 105 | 0.9 | 2.6 | 0.00 | 0.00 | 0.00 | 90 | 1006.1 |